English version Home page |
Updated on March 18, 2012 |
プロフィール
|
軌道要素T 2012 Mar. 15.03141 TT MPC q 0.0069520 (2000.0) P Q Peri. 83.34347 +0.22294727 -0.97167163 Node 7.70782 -0.94937135 -0.23468454 e 1.0 Incl. 144.22180 +0.22133358 -0.02788207 From 39 observations 2012 Mar. 9-13.
|
星図
|
光度変化m1 = 13.0 + 5 logΔ + 10.0 log r
|
軌道要素はM.P.E.C. 2012-F02に掲載されたものです。
|